FW9892 Weather Reports


time (UTC)temp
C
wind
direction
speed
KPH
gust
KPH
rain 1hr
cm
rain 24hr
cm
rain mn
cm
humidity
%
barometer
mb
20260503054610 14 0 0.0 0.0 0.00 0.00 0.00 85 1011.4
20260503053053 13 0 0.0 0.0 0.00 0.00 0.00 86 1011.5
20260503051552 13 0 0.0 0.0 0.00 0.00 0.00 87 1011.4
20260503050055 13 0 0.0 0.0 0.00 0.00 0.00 88 1011.4
20260503044557 13 0 0.0 0.0 0.00 0.00 0.00 88 1011.4
20260503043059 13 0 0.0 0.0 0.00 0.00 0.00 88 1011.5
20260503041553 13 0 0.0 0.0 0.00 0.00 0.00 88 1011.6
20260503040056 13 0 0.0 0.0 0.00 0.00 0.00 87 1011.7
20260503034554 13 0 0.0 0.0 0.00 0.00 0.00 86 1011.9
20260503033056 13 0 0.0 0.0 0.00 0.00 0.00 86 1011.8
20260503031554 14 0 0.0 0.0 0.00 0.00 0.00 87 1011.8
20260503030050 13 0 0.0 0.0 0.00 0.00 0.00 88 1011.8
20260503024554 13 0 0.0 0.0 0.00 0.00 0.00 87 1012.0
20260503023058 13 0 0.0 0.0 0.00 0.00 0.00 86 1012.1
20260503021552 14 0 0.0 0.0 0.00 0.00 0.00 85 1012.0
20260503020052 14 0 0.0 0.0 0.00 0.00 0.00 84 1012.3
20260503014602 15 0 0.0 0.0 0.00 0.00 0.00 83 1012.2
20260503013050 15 0 0.0 0.0 0.00 0.00 0.00 83 1012.5
20260503011552 15 0 0.0 0.0 0.00 0.00 0.00 83 1012.5
20260503010054 15 0 0.0 0.0 0.00 0.00 0.00 83 1012.7
20260503004551 15 0 0.0 0.0 0.00 0.00 0.00 83 1012.7
20260503003106 15 0 0.0 0.0 0.00 0.00 0.00 82 1012.8
20260503001551 15 0 0.0 0.0 0.00 0.00 0.00 81 1013.0
20260503000047 15 0 0.0 0.0 0.00 0.00 0.00 81 1013.0
20260502234554 15 0 0.0 0.0 0.00 0.00 0.00 80 1013.2
20260502233048 16 0 0.0 0.0 0.00 0.00 0.00 79 1013.4
20260502231554 16 0 0.0 0.0 0.00 0.00 0.00 78 1013.3
20260502230052 16 0 0.0 0.0 0.00 0.00 0.00 78 1013.3
20260502224550 16 0 0.0 0.0 0.00 0.00 0.00 78 1013.5
20260502223050 16 0 0.0 0.0 0.00 0.00 0.00 77 1013.6
20260502221552 17 0 0.0 0.0 0.00 0.00 0.00 76 1013.5
20260502220052 17 0 0.0 0.0 0.00 0.00 0.00 76 1013.5
20260502214555 17 0 0.0 0.0 0.00 0.00 0.00 76 1013.6
20260502213052 17 0 0.0 0.0 0.00 0.00 0.00 75 1013.5
20260502211553 17 0 0.0 0.0 0.00 0.00 0.00 75 1013.7
20260502210106 17 0 0.0 0.0 0.00 0.00 0.00 75 1013.6
20260502204558 17 0 0.0 0.0 0.00 0.00 0.00 75 1013.8
20260502203058 18 0 0.0 8.0 0.00 0.00 0.00 74 1013.9
20260502201551 18 0 0.0 0.0 0.00 0.00 0.00 71 1013.8
20260502200054 18 0 0.0 0.0 0.00 0.00 0.00 71 1013.7
20260502194556 19 0 0.0 0.0 0.00 0.00 0.00 70 1013.8
20260502193056 20 0 0.0 0.0 0.00 0.00 0.00 69 1013.8
20260502191606 20 0 0.0 1.6 0.00 0.00 0.00 69 1013.9
20260502190053 20 0 0.0 0.0 0.00 0.00 0.00 68 1013.9
20260502184605 20 0 0.0 0.0 0.00 0.00 0.00 67 1013.9
20260502183058 21 0 0.0 0.0 0.00 0.00 0.00 67 1014.0
20260502181556 21 0 0.0 0.0 0.00 0.00 0.00 64 1013.9
20260502163102 23 0 0.0 4.8 0.00 0.00 0.00 58 1014.5
20260502161559 23 0 0.0 11.3 0.00 0.00 0.00 54 1014.7
20260502151613 24 0 0.0 3.2 0.00 0.00 0.00 53 1015.3
20260502123102 22 0 1.6 11.3 0.00 0.00 0.00 59 1017.7
20260502121549 22 253 1.6 9.7 0.00 0.00 0.00 60 1017.8
20260502114556 21 219 0.0 14.5 0.00 0.00 0.00 65 1018.2
20260502113104 21 0 1.6 6.4 0.00 0.00 0.00 67 1018.3
20260502111555 21 248 1.6 11.3 0.00 0.00 0.00 65 1018.5
20260502110054 21 0 1.6 11.3 0.00 0.00 0.00 63 1018.5
20260502104555 22 0 0.0 14.5 0.00 0.00 0.00 61 1018.5
20260502103103 22 273 3.2 14.5 0.00 0.00 0.00 61 1018.6
20260502101603 22 256 3.2 17.7 0.00 0.00 0.00 61 1018.5
20260502100118 22 246 3.2 11.3 0.00 0.00 0.00 61 1018.9
20260502090114 20 0 1.6 11.3 0.00 0.00 0.00 64 1019.1
20260502070053 17 0 0.0 1.6 0.00 0.00 0.00 69 1019.5
20260502064606 16 0 0.0 0.0 0.00 0.00 0.00 69 1019.6
20260502063059 16 0 0.0 4.8 0.00 0.00 0.00 72 1019.5
20260502061611 15 0 0.0 4.8 0.00 0.00 0.00 73 1019.5
20260502060054 14 0 0.0 1.6 0.00 0.00 0.00 73 1019.5